Simultaneous Nadir Overpasses (SNOs) Predictions

Prediction of SNOs between LANDSAT-8 and TERRA Satellite Orbit:

Table of predicted SNOs for the next 14.0 days since TLE Epoch: 10/21/2023
Index Date (LANDSAT-8) Time (LANDSAT-8) Lat,Lon (LANDSAT-8) SZA (LANDSAT-8 ) Date (TERRA) Time (TERRA) Lat,Lon (TERRA) SZA (TERRA ) Distance(km) Time Diff (sec)
1 10/22/2023 09:21:19 81.59, 116.53 99.55 10/22/2023 09:22:29 81.59, 116.57 99.59 0.78 70
2 10/22/2023 10:10:45 -81.59, -75.64 80.42 10/22/2023 10:11:51 -81.58, -75.64 80.38 0.09 66
3 10/22/2023 11:00:12 81.59, 91.86 99.58 10/22/2023 11:01:13 81.59, 91.83 99.61 0.56 61
4 10/22/2023 11:49:38 -81.58,-100.31 80.39 10/22/2023 11:50:35 -81.59,-100.39 80.37 1.26 57
5 10/22/2023 12:39:04 81.57, 67.59 99.66 10/22/2023 12:39:56 81.58, 67.48 99.68 1.84 52
6 10/22/2023 13:28:30 -81.57,-124.58 80.30 10/22/2023 13:29:18 -81.57,-124.73 80.30 2.55 48
7 10/22/2023 14:17:56 81.56, 43.32 99.75 10/22/2023 14:18:39 81.56, 43.14 99.75 3.16 43
8 10/22/2023 15:07:24 -81.58,-149.65 80.33 10/22/2023 15:08:02 -81.57,-149.48 80.28 2.92 38
9 10/22/2023 15:56:50 81.57, 18.25 99.73 10/22/2023 15:57:23 81.57, 18.39 99.77 2.33 33
10 10/22/2023 16:46:16 -81.56,-173.92 80.24 10/22/2023 16:46:45 -81.56,-173.83 80.21 1.62 29
11 10/22/2023 17:35:42 81.55, -6.02 99.81 10/22/2023 17:36:06 81.55, -5.96 99.84 1.03 24
12 10/22/2023 18:25:08 -81.55, 161.81 80.16 10/22/2023 18:25:28 -81.54, 161.82 80.14 0.38 20
13 10/22/2023 19:14:35 81.55, -30.69 99.84 10/22/2023 19:14:50 81.55, -30.71 99.85 0.30 15
14 10/22/2023 20:04:01 -81.54, 137.13 80.12 10/22/2023 20:04:12 -81.55, 137.08 80.13 0.96 11
15 10/22/2023 20:53:27 81.53, -54.96 99.93 10/22/2023 20:53:33 81.54, -55.06 99.92 1.60 6
16 10/22/2023 21:42:53 -81.53, 112.86 80.04 10/22/2023 21:42:55 -81.53, 112.73 80.06 2.26 2
17 10/22/2023 22:32:20 81.53, -79.63 99.96 10/22/2023 22:32:17 81.54, -79.80 99.94 2.91 3
18 10/22/2023 23:21:47 -81.54, 87.79 80.06 10/22/2023 23:21:39 -81.53, 87.98 80.04 3.21 8
19 10/23/2023 00:11:13 81.53,-104.31 99.99 10/23/2023 00:11:00 81.52,-104.16 100.01 2.57 13
20 10/23/2023 01:00:39 -81.52, 63.52 79.98 10/23/2023 01:00:22 -81.52, 63.63 79.97 1.92 17
21 10/23/2023 01:50:05 81.51,-128.58 100.08 10/23/2023 01:49:43 81.51,-128.51 100.07 1.27 22
22 10/23/2023 02:39:30 -81.50, 39.24 79.89 10/23/2023 02:39:04 -81.50, 39.27 79.90 0.64 26
23 10/23/2023 03:28:57 81.51,-153.25 100.11 10/23/2023 03:28:26 81.51,-153.26 100.09 0.10 31
24 10/23/2023 04:18:23 -81.50, 14.57 79.86 10/23/2023 04:17:48 -81.50, 14.53 79.89 0.67 35
25 10/23/2023 05:07:49 81.49,-177.53 100.20 10/23/2023 05:07:09 81.49,-177.61 100.16 1.36 40
26 10/23/2023 05:57:15 -81.48, -9.71 79.77 10/23/2023 05:56:31 -81.49, -9.83 79.82 1.97 44
27 10/23/2023 06:46:41 81.47, 158.19 100.28 10/23/2023 06:45:52 81.48, 158.03 100.23 2.67 49
28 10/23/2023 07:36:08 -81.48, -34.38 79.74 10/23/2023 07:35:15 -81.49, -34.57 79.80 3.27 53
29 10/23/2023 08:25:35 81.49, 133.12 100.26 10/23/2023 08:24:36 81.48, 133.29 100.24 2.81 59
30 10/23/2023 09:15:01 -81.48, -59.06 79.71 10/23/2023 09:13:58 -81.47, -58.93 79.73 2.20 63
31 10/23/2023 10:04:27 81.47, 108.84 100.34 10/23/2023 10:03:19 81.46, 108.93 100.31 1.50 68



Historial Predications of SNOs between LANDSAT-8 and TERRA
